Temperature
6 6 6 7 7 7 7 7 8 9 9 9 9 10 10 11 11 11 11 11 11 11 12 12 12 12 12 12 13 13 13 13 13 13 14 14 14 14 14 14 14 15 14 14
6 6 7 7 7 6 7 7 8 9 10 10 10 10 11 11 11 11 11 11 11 11 12 12 12 12 12 12 12 12 13 13 13 13 14 14 14 14 14 14 14 14 14 14
6 7 7 7 7 7 7 8 8 9 9 10 10 10 11 11 11 11 11 11 11 12 12 11 12 12 12 12 12 12 12 13 13 13 13 13 13 13 13 13 14 14 14 14
6 7 6 7 7 7 7 8 8 8 9 9 10 10 11 12 12 12 11 11 11 11 12 12 12 12 12 12 12 12 12 13 13 13 13 13 13 13 13 13 13 13 13 13
7 7 7 7 7 7 8 9 8 9 9 9 10 10 11 11 11 12 12 12 12 11 12 12 12 12 12 12 12 12 12 13 13 13 12 12 13 13 13 13 13 13 13 13
7 7 7 7 8 8 8 8 9 9 10 9 10 10 11 11 11 12 13 12 11 11 11 12 12 12 12 12 12 12 12 12 13 13 13 12 12 12 12 12 13 13 13 13
7 7 7 7 8 8 8 9 9 9 10 10 10 10 11 11 11 11 12 11 11 11 11 11 12 12 12 12 12 12 13 13 12 12 12 12 12 12 12 12 12 12 13 13
7 7 7 8 8 8 8 8 9 10 10 10 10 10 11 11 11 10 10 10 10 10 11 11 12 12 12 12 13 13 13 13 12 12 12 12 12 12 12 12 12 12 12 12
8 7 8 8 8 8 9 9 9 10 10 11 10 11 11 11 11 10 10 10 9 9 10 10 11 11 12 12 12 13 13 13 13 12 12 12 12 12 12 12 12 12 12 12
8 7 8 8 8 9 9 9 9 10 10 11 11 11 10 10 10 10 10 9 9 9 9 10 11 11 11 12 12 12 12 12 12 12 12 12 12 12 12 12 12 12 12 12
8 8 8 8 8 8 9 9 9 10 10 11 11 10 9 9 9 9 9 8 8 8 8 9 10 11 11 12 12 12 12 12 12 12 12 12 12 12 12 12 12 12 12 12
8 8 8 8 8 8 8 9 9 10 10 11 11 10 9 9 9 9 9 8 7 7 8 9 9 10 10 11 11 11 11 12 12 12 12 12 12 12 12 12 11 11 11 11
8 8 8 9 9 9 9 9 9 9 10 10 11 10 9 10 9 9 8 8 7 7 8 8 9 10 10 10 11 11 11 11 11 11 11 11 11 11 11 11 11 11 11 10
8 8 8 9 9 9 8 9 9 9 10 10 10 10 10 10 9 9 8 8 8 7 7 8 8 9 9 10 10 10 10 10 10 10 11 10 10 10 10 10 10 10 10 9
9 8 7 8 8 8 8 8 8 8 9 10 10 10 9 9 9 8 8 7 7 7 6 7 7 8 8 8 9 9 9 9 10 10 10 10 10 9 9 9 9 9 9 8
8 8 7 7 8 8 8 8 8 8 9 9 9 9 9 8 8 7 7 6 6 6 6 6 7 7 7 8 8 8 8 8 9 9 9 9 9 9 8 8 8 8 8 8
8 8 8 8 8 8 9 8 8 8 8 9 9 9 8 8 7 7 6 6 5 5 5 5 6 6 7 7 7 7 7 8 8 8 8 8 8 8 7 7 7 7 7 7
8 8 8 8 8 7 8 7 7 7 7 7 7 7 7 7 6 5 5 5 5 4 4 5 5 6 6 6 6 7 7 7 7 7 7 7 7 7 6 6 6 6 6 6
7 8 8 8 8 8 8 7 7 8 8 7 7 7 6 5 6 5 4 4 4 4 4 4 5 5 5 5 6 6 6 6 6 6 6 6 6 6 6 6 6 6 6 6
6 7 8 8 8 8 9 7 6 7 8 7 6 6 6 6 8 7 4 4 4 4 4 4 4 4 4 5 5 5 5 5 5 5 5 5 5 5 5 5 5 5 5 5
7 7 7 7 8 9 7 6 6 8 9 6 5 5 5 6 6 4 3 3 3 3 3 4 4 4 4 4 4 4 4 4 4 4 4 4 4 4 4 4 4 4 4 4
7 7 7 7 7 8 6 6 7 8 5 5 4 4 4 4 3 3 3 3 3 3 3 3 3 3 3 3 3 3 3 3 3 3 3 3 3 3 3 3 3 3 3 3
6 7 8 8 8 6 5 5 5 5 4 4 4 4 3 3 3 2 2 2 2 2 2 2 2 2 2 2 2 2 2 2 2 2 3 3 3 3 2 2 2 2 2 2
5 4 5 6 6 5 4 4 4 4 4 4 4 3 3 2 2 2 2 1 1 1 1 1 1 1 1 1 1 1 1 1 1 1 2 2 2 2 2 1 1 1 1 1
6 4 5 6 5 4 3 3 4 4 4 4 3 3 2 2 2 1 1 1 1 1 0 0 0 0 0 0 0 0 0 0 0 0 1 1 1 1 1 1 1 1 1 1
4 5 6 7 6 6 5 4 4 4 3 3 3 2 2 1 1 1 0 0 0 -0 -0 -0 -0 -0 -0 -0 -1 -1 -1 -1 -1 -1 -1 -1 -0 -0 -0 -0 -0 0 0 0
Wind_Speed
4 5 8 9 9 9 8 9 9 8 6 8 11 11 11 9 8 9 9 8 7 7 6 6 6 6 6 8 11 12 13 13 11 9 9 8 8 8 8 8 10 11 11 12
4 8 9 8 8 10 10 9 8 6 5 6 7 9 9 9 8 8 8 7 7 7 7 8 8 7 8 9 10 10 10 11 11 9 8 6 7 6 7 7 8 10 11 11
6 4 4 6 7 7 8 8 7 5 4 4 4 5 6 6 6 6 6 7 7 8 9 10 9 9 8 8 9 8 8 8 10 9 6 5 5 4 5 6 6 8 10 10
6 5 5 6 6 6 6 6 7 7 4 2 3 2 2 3 4 5 7 7 6 7 7 8 8 9 9 8 7 8 8 8 8 9 8 9 7 6 6 6 6 6 8 10
3 3 4 5 5 5 4 5 6 6 4 1 2 1 1 1 1 3 4 5 6 6 7 7 7 8 7 7 7 8 8 9 9 9 10 9 7 6 4 5 6 6 6 7
5 2 3 3 4 4 4 2 3 4 3 1 1 0 2 3 3 2 0 2 4 5 6 7 6 6 5 5 5 6 7 8 9 10 11 11 12 10 9 8 8 7 5 5
2 1 2 2 2 2 2 2 1 2 2 2 1 1 3 7 7 4 2 1 3 5 6 7 7 7 6 6 5 5 6 6 7 9 10 10 11 11 10 9 9 8 6 6
1 1 0 1 2 1 2 3 3 1 2 2 2 2 5 8 8 6 4 5 5 6 6 7 6 5 6 6 5 5 6 6 5 6 7 8 8 6 6 8 8 8 7 7
1 1 1 1 2 2 2 1 3 1 1 3 3 3 5 10 12 11 10 9 8 8 7 7 6 5 5 5 5 5 5 5 5 5 6 6 7 7 7 7 7 7 6 6
1 1 3 2 1 1 2 3 2 1 1 4 5 5 6 11 11 11 11 10 9 9 9 8 7 6 5 5 5 5 4 4 4 3 4 3 5 6 6 6 7 7 7 7
1 1 1 1 2 3 2 1 2 1 2 2 4 5 6 7 7 8 10 10 10 10 9 8 7 7 7 7 6 5 5 4 3 3 2 3 3 4 5 6 7 7 7 8
1 0 1 1 1 2 3 3 3 2 3 3 4 5 6 5 6 8 10 10 10 10 10 9 9 9 8 8 7 6 5 4 3 2 2 2 2 3 4 5 5 6 7 7
3 1 1 2 2 0 2 3 3 2 2 2 3 5 5 6 9 9 10 10 10 10 10 10 10 9 9 8 7 6 5 4 3 2 2 2 2 3 3 4 5 6 7 7
2 1 1 2 2 1 2 3 3 2 2 3 4 5 5 7 8 8 9 9 10 10 10 10 9 9 8 7 7 6 6 4 3 1 1 1 2 2 3 4 5 6 7 8
1 2 2 3 2 1 1 2 2 2 2 2 4 4 3 4 5 6 7 8 9 10 10 10 9 8 8 8 7 6 5 5 3 2 1 0 1 2 3 4 5 5 6 7
1 2 1 2 3 2 2 2 1 1 1 3 4 3 2 3 4 5 6 7 8 8 8 8 8 8 8 8 7 6 6 5 3 2 1 1 1 2 3 4 5 6 6 6
2 2 1 1 2 1 1 2 1 1 1 2 2 2 2 2 3 3 4 5 6 6 7 7 8 7 7 7 7 7 6 5 4 3 2 1 1 2 3 3 5 6 6 7
2 2 1 1 0 1 2 2 1 2 1 1 1 1 1 2 3 4 4 4 5 5 6 7 7 7 6 6 7 7 6 5 4 3 3 2 2 3 3 4 5 6 6 6
0 2 2 1 1 2 1 1 2 2 1 2 3 2 2 3 2 2 4 4 4 4 5 5 6 6 6 6 7 6 6 5 4 4 3 3 4 4 5 5 6 6 6 6
2 1 2 2 2 2 2 2 1 2 2 3 3 3 3 3 2 0 2 3 4 4 5 5 6 6 6 7 7 6 6 6 5 6 5 5 5 5 6 6 6 5 6 6
3 2 3 3 3 3 1 2 3 3 1 4 4 3 4 2 1 1 2 3 4 5 5 6 6 6 6 7 6 6 6 6 7 7 6 5 5 6 6 6 5 5 5 6
5 5 5 5 5 3 4 5 5 0 3 4 4 3 3 2 0 0 2 3 5 5 6 7 6 7 7 6 6 7 7 8 7 7 6 6 5 5 4 5 5 5 6 7
5 4 3 4 2 2 3 3 1 2 3 4 4 3 3 2 1 1 3 4 5 6 7 7 7 8 7 6 7 8 8 8 8 7 6 6 5 5 5 5 6 5 6 6
4 3 3 4 5 4 4 4 3 3 3 3 3 3 2 2 2 2 3 4 5 6 7 7 8 8 8 8 7 8 9 8 8 8 7 6 5 5 5 5 5 6 6 7
4 6 5 5 4 3 5 7 6 5 4 4 3 2 2 2 2 3 4 5 6 6 7 7 8 9 9 9 9 8 8 8 8 8 7 7 6 6 5 6 6 7 8 8
7 8 7 6 5 5 4 5 7 7 6 5 4 3 2 2 3 4 5 5 6 7 7 7 8 9 9 9 9 9 8 8 8 8 7 6 6 5 5 6 6 9 10 12
Wind_Direction
204 225 235 241 240 263 266 260 261 267 250 234 241 252 260 261 245 234 227 221 218 214 192 181 193 178 192 213 206 195 188 177 174 172 174 175 183 185 188 194 196 195 198 201
221 238 251 257 253 256 258 255 259 271 247 240 245 258 258 251 238 231 219 218 209 196 182 178 181 182 196 206 205 194 192 178 180 183 181 178 176 184 186 187 194 198 201 202
241 270 271 251 254 249 251 247 252 253 269 240 241 261 249 241 230 224 221 222 209 189 185 179 180 181 189 204 202 192 191 185 188 185 172 160 159 160 177 187 193 201 201 203
259 258 255 254 255 245 255 251 249 241 231 225 229 246 271 248 223 217 216 213 201 187 183 179 182 184 188 190 192 192 190 192 190 184 186 188 191 200 197 190 190 194 200 203
264 258 254 257 262 248 266 275 245 243 242 225 242 231 17 355 239 226 214 204 193 185 178 173 177 179 180 173 180 192 191 195 195 194 195 197 202 212 203 189 187 197 200 202
262 261 267 275 281 250 267 260 233 241 234 152 335 257 49 20 334 309 246 177 171 167 159 156 151 151 151 151 165 180 182 190 192 197 201 203 203 203 203 200 198 200 196 198
294 204 222 254 269 207 249 249 201 186 182 75 24 75 36 6 353 345 351 123 129 133 140 138 133 136 137 138 149 161 173 182 187 194 200 207 208 202 203 202 205 200 197 200
322 29 326 265 292 282 268 304 323 11 91 82 70 60 25 11 22 34 60 93 101 106 113 112 109 121 130 133 138 144 153 162 165 178 193 202 199 195 201 205 207 204 202 200
296 13 15 296 292 297 298 313 317 337 68 87 71 66 51 26 38 49 64 74 82 89 95 98 95 100 113 121 126 132 141 145 153 165 179 188 188 194 202 200 203 202 194 182
290 25 1 345 304 331 313 319 298 318 47 89 79 55 17 8 22 38 54 63 70 76 79 80 82 81 81 88 95 104 119 125 130 151 169 179 183 186 188 188 191 189 181 174
243 43 25 19 8 344 341 347 353 19 2 63 94 68 7 354 15 47 60 62 65 68 70 71 72 67 69 73 75 81 91 99 103 109 140 160 167 170 177 182 183 178 173 173
201 107 55 336 306 296 316 348 340 357 41 37 89 73 20 19 47 66 69 66 65 65 64 62 62 61 58 58 59 62 67 75 77 85 113 130 145 158 167 172 171 168 167 168
171 176 134 144 148 66 355 4 7 20 48 46 84 94 48 62 67 65 67 65 64 63 61 59 56 53 49 46 47 49 49 52 58 74 111 131 145 158 166 166 164 163 162 163
152 72 12 58 46 9 7 12 7 23 48 65 78 101 74 65 67 63 61 63 65 60 55 52 50 46 43 40 37 35 34 30 31 44 97 140 161 171 172 170 167 166 166 166
146 88 77 50 18 47 33 18 40 58 48 86 108 107 85 68 70 67 63 63 62 55 48 42 38 34 31 30 28 23 19 15 8 4 359 353 166 164 169 170 170 169 169 170
85 115 102 54 37 50 30 3 22 75 93 126 127 107 76 78 75 71 62 56 52 45 39 35 31 27 23 18 12 8 6 360 350 336 318 305 202 184 181 179 176 175 174 173
126 139 138 81 349 292 332 328 256 164 145 176 168 128 125 102 77 66 55 49 44 35 29 24 17 11 6 1 355 353 349 343 337 325 310 276 232 215 202 190 187 188 184 182
144 132 113 107 176 207 61 42 237 170 200 210 146 115 116 95 88 70 52 44 37 26 17 11 5 360 355 349 346 341 339 337 329 316 302 277 247 232 217 208 205 200 194 193
32 155 137 166 207 251 217 192 193 200 204 204 200 176 130 121 132 104 55 35 24 12 3 358 352 347 344 345 341 335 335 332 321 308 294 275 253 239 227 221 216 208 203 203
71 118 167 177 225 230 126 128 184 210 209 170 184 174 163 175 229 158 40 7 3 359 355 349 345 343 344 344 338 332 331 327 320 311 296 280 258 244 237 232 226 220 213 212
161 169 199 209 240 260 131 146 173 205 91 143 167 165 168 192 324 44 7 355 351 346 343 341 340 341 340 338 333 328 327 325 319 309 296 282 264 253 247 240 230 223 219 214
197 189 196 200 220 234 143 161 197 66 102 147 161 171 175 173 136 3 345 341 340 337 337 337 332 330 332 334 329 322 322 322 317 308 297 286 274 261 247 239 231 225 220 218
216 220 217 217 226 69 169 195 130 142 165 171 174 178 179 197 237 291 317 327 329 329 329 328 323 320 323 328 326 317 320 322 317 309 301 294 284 267 249 237 231 226 223 224
212 202 218 242 239 223 220 215 206 193 186 172 172 176 193 220 255 288 304 313 317 320 322 322 319 316 318 323 322 317 316 317 312 307 303 296 286 276 262 248 235 231 228 228
201 180 207 238 239 227 224 213 200 183 168 158 159 172 194 222 262 287 296 305 310 313 315 315 313 311 312 317 316 317 317 315 309 304 300 294 282 274 267 256 246 241 240 236
194 192 197 221 201 197 196 186 184 181 182 179 176 186 206 240 265 281 289 298 303 307 310 308 307 307 309 312 311 313 315 313 307 303 300 295 290 283 276 270 267 250 249 251
Height
1476 1476 1469 1465 1466 1464 1462 1458 1452 1448 1447 1447 1443 1441 1439 1438 1438 1438 1439 1440 1442 1443 1445 1448 1451 1454 1459 1462 1466 1471 1476 1480 1485 1489 1494 1498 1503 1507 1511 1515 1518 1521 1524 1527
1473 1469 1465 1464 1464 1463 1460 1456 1450 1446 1444 1443 1440 1437 1435 1435 1434 1435 1436 1438 1439 1440 1443 1446 1449 1453 1457 1460 1463 1468 1472 1477 1483 1487 1491 1496 1500 1504 1508 1512 1515 1518 1521 1524
1467 1464 1463 1463 1460 1459 1455 1452 1448 1445 1444 1441 1439 1436 1432 1430 1431 1433 1434 1435 1436 1438 1441 1444 1446 1449 1454 1457 1460 1465 1469 1474 1479 1484 1489 1493 1498 1501 1505 1508 1511 1514 1517 1520
1465 1463 1462 1460 1457 1456 1451 1448 1447 1445 1443 1440 1438 1434 1429 1427 1428 1430 1432 1433 1435 1437 1439 1442 1444 1448 1453 1456 1459 1463 1468 1472 1477 1481 1485 1489 1493 1497 1501 1504 1507 1510 1513 1516
1461 1461 1459 1457 1455 1454 1450 1447 1446 1445 1442 1439 1436 1433 1430 1427 1427 1428 1428 1431 1433 1436 1438 1441 1444 1448 1451 1455 1458 1461 1465 1469 1473 1477 1481 1485 1489 1493 1496 1500 1503 1506 1509 1511
1460 1460 1459 1456 1454 1453 1451 1448 1445 1442 1439 1439 1436 1433 1432 1429 1430 1428 1428 1430 1433 1435 1438 1441 1444 1447 1450 1453 1456 1460 1463 1466 1469 1474 1477 1481 1485 1489 1492 1495 1499 1502 1504 1506
1458 1457 1458 1457 1453 1451 1450 1447 1442 1439 1435 1435 1436 1434 1435 1433 1433 1431 1430 1431 1433 1435 1438 1441 1443 1446 1449 1452 1456 1459 1461 1465 1468 1471 1474 1478 1481 1485 1488 1490 1493 1496 1499 1501
1457 1455 1456 1455 1453 1450 1449 1448 1443 1436 1432 1434 1436 1436 1438 1437 1435 1434 1433 1433 1434 1436 1438 1441 1444 1447 1450 1452 1456 1458 1461 1464 1466 1469 1472 1476 1478 1480 1483 1486 1489 1491 1494 1496
1454 1455 1455 1455 1454 1452 1448 1446 1447 1441 1436 1433 1436 1438 1437 1437 1437 1437 1436 1436 1437 1439 1441 1444 1446 1449 1451 1453 1456 1458 1461 1463 1466 1468 1471 1473 1475 1478 1480 1483 1485 1488 1489 1491
1456 1456 1455 1454 1453 1452 1451 1448 1444 1440 1435 1434 1438 1440 1444 1442 1442 1441 1440 1441 1442 1442 1444 1446 1448 1450 1452 1454 1456 1458 1460 1463 1465 1467 1469 1471 1473 1475 1477 1480 1482 1483 1485 1487
1457 1455 1456 1454 1454 1451 1450 1448 1446 1442 1438 1433 1437 1448 1452 1450 1449 1447 1446 1446 1446 1446 1447 1448 1449 1451 1453 1454 1456 1458 1460 1462 1464 1466 1468 1469 1471 1472 1474 1476 1478 1479 1481 1483
1457 1455 1456 1456 1455 1455 1453 1450 1447 1442 1443 1439 1437 1454 1455 1454 1453 1451 1451 1451 1451 1451 1451 1451 1452 1453 1454 1455 1457 1458 1460 1462 1463 1465 1466 1467 1468 1469 1471 1473 1474 1476 1477 1479
1456 1455 1454 1452 1455 1455 1452 1452 1451 1448 1445 1442 1440 1455 1456 1455 1455 1455 1455 1455 1455 1454 1454 1455 1455 1456 1456 1457 1458 1459 1460 1461 1462 1464 1464 1465 1466 1467 1468 1469 1471 1472 1473 1475
1457 1455 1455 1453 1453 1454 1454 1453 1452 1450 1447 1446 1447 1453 1456 1457 1457 1458 1459 1459 1459 1458 1458 1458 1458 1458 1459 1459 1459 1460 1461 1461 1462 1462 1463 1463 1463 1464 1465 1466 1467 1468 1470 1471
1456 1457 1459 1459 1459 1458 1457 1456 1455 1454 1451 1450 1453 1455 1458 1460 1461 1462 1462 1462 1462 1461 1461 1461 1461 1461 1461 1460 1460 1460 1461 1460 1460 1460 1461 1461 1461 1461 1462 1463 1464 1465 1466 1467
1457 1458 1460 1461 1459 1458 1457 1457 1457 1457 1456 1456 1456 1459 1462 1463 1464 1464 1464 1464 1464 1464 1463 1463 1463 1462 1462 1461 1461 1460 1460 1459 1459 1459 1458 1458 1458 1459 1459 1460 1460 1461 1462 1463
1458 1458 1460 1457 1460 1457 1456 1459 1458 1459 1460 1458 1457 1461 1464 1465 1466 1466 1466 1466 1466 1466 1465 1464 1463 1463 1462 1461 1460 1459 1459 1458 1457 1456 1456 1455 1455 1455 1456 1456 1457 1458 1458 1460
1458 1459 1460 1459 1461 1462 1461 1463 1462 1461 1462 1463 1463 1464 1465 1466 1468 1468 1468 1468 1467 1467 1466 1465 1464 1463 1462 1461 1460 1459 1457 1456 1455 1454 1453 1453 1452 1452 1452 1453 1453 1454 1454 1455
1461 1459 1460 1460 1458 1457 1460 1463 1463 1461 1461 1464 1464 1465 1467 1468 1468 1468 1468 1468 1468 1467 1466 1465 1464 1462 1461 1459 1458 1457 1455 1454 1453 1452 1451 1450 1449 1449 1449 1449 1449 1450 1450 1451
1464 1462 1460 1461 1458 1456 1457 1462 1464 1464 1459 1463 1464 1465 1466 1467 1465 1467 1468 1468 1467 1466 1466 1464 1463 1461 1459 1457 1456 1454 1453 1451 1450 1448 1447 1446 1445 1445 1444 1445 1445 1445 1445 1446
1463 1462 1461 1460 1458 1453 1460 1463 1465 1461 1458 1463 1464 1465 1467 1467 1467 1469 1468 1467 1466 1465 1464 1463 1461 1459 1457 1455 1453 1452 1450 1448 1446 1444 1443 1441 1441 1440 1440 1439 1439 1440 1440 1440
1459 1459 1459 1459 1458 1457 1461 1462 1461 1460 1462 1463 1464 1466 1466 1467 1467 1467 1466 1466 1465 1463 1462 1460 1458 1456 1455 1452 1451 1448 1447 1445 1442 1440 1439 1437 1436 1435 1434 1434 1434 1434 1434 1435
1461 1459 1455 1456 1457 1459 1460 1460 1461 1461 1462 1463 1464 1465 1466 1466 1466 1466 1465 1464 1462 1461 1459 1457 1455 1453 1451 1449 1447 1445 1443 1440 1438 1436 1434 1433 1431 1430 1429 1429 1428 1428 1428 1429
1460 1463 1461 1458 1457 1458 1459 1459 1460 1461 1462 1462 1463 1464 1464 1465 1464 1464 1463 1462 1460 1458 1457 1454 1452 1450 1448 1446 1443 1441 1438 1436 1434 1432 1430 1428 1427 1425 1424 1423 1423 1422 1422 1422
1454 1459 1458 1456 1456 1457 1456 1457 1458 1459 1460 1461 1462 1463 1463 1463 1462 1462 1461 1459 1458 1456 1454 1451 1449 1447 1444 1442 1439 1437 1434 1432 1429 1427 1425 1424 1422 1420 1419 1418 1417 1417 1416 1417
1452 1452 1452 1448 1450 1452 1453 1454 1456 1457 1458 1460 1460 1461 1461 1461 1460 1459 1458 1457 1455 1453 1450 1448 1446 1443 1440 1438 1435 1433 1430 1428 1425 1423 1421 1419 1418 1416 1414 1413 1412 1410 1411 1410